timestamp,wind_dir_avg,wind_spd_avg,wind_spd_max_dir,wind_spd_gust,battery_voltage,lat,long
2023-01-28 00:04:01+00:00,259.0,9.68,258.0,11.11,12.33,47.59359,-54.27349
2023-01-28 00:14:00+00:00,262.0,11.13,265.0,14.1,12.33,47.59359,-54.27349
2023-01-28 00:24:00+00:00,267.0,10.34,280.0,11.71,12.33,47.59359,-54.27349
2023-01-28 00:34:00+00:00,261.0,10.57,260.0,11.8,12.33,47.59359,-54.27349
2023-01-28 00:44:00+00:00,268.0,12.53,265.0,13.31,12.33,47.59359,-54.27349
2023-01-28 00:54:00+00:00,267.0,10.79,264.0,12.57,12.33,47.59359,-54.27349
2023-01-28 01:04:00+00:00,275.0,9.54,266.0,11.75,12.33,47.59359,-54.27349
2023-01-28 01:14:00+00:00,270.0,9.63,273.0,10.53,12.33,47.59359,-54.27349
2023-01-28 01:24:00+00:00,265.0,10.73,267.0,13.09,12.33,47.59359,-54.27349
2023-01-28 01:34:00+00:00,265.0,9.03,265.0,10.46,12.33,47.59359,-54.27349
2023-01-28 01:44:00+00:00,264.0,9.55,267.0,11.74,12.33,47.59359,-54.27349
2023-01-28 01:54:00+00:00,259.0,9.8,267.0,11.1,12.33,47.59359,-54.27349
2023-01-28 02:04:00+00:00,255.0,10.76,255.0,11.93,12.33,47.59359,-54.27349
2023-01-28 02:14:00+00:00,265.0,8.97,261.0,10.19,12.33,47.59359,-54.27349
2023-01-28 02:24:00+00:00,272.0,9.0,274.0,10.07,12.33,47.59359,-54.27349
2023-01-28 02:34:00+00:00,261.0,8.92,261.0,10.03,12.33,47.59359,-54.27349
2023-01-28 02:44:00+00:00,259.0,9.71,258.0,10.89,12.33,47.59359,-54.27349
2023-01-28 02:54:00+00:00,266.0,9.55,273.0,10.61,12.33,47.59359,-54.27349
2023-01-28 03:04:00+00:00,264.0,10.17,260.0,11.28,12.33,47.59359,-54.27349
2023-01-28 03:14:00+00:00,269.0,9.59,276.0,10.77,12.25,47.59359,-54.27349
2023-01-28 03:24:00+00:00,282.0,8.92,284.0,10.81,12.25,47.59359,-54.27349
2023-01-28 03:34:00+00:00,275.0,8.09,275.0,9.41,12.25,47.59359,-54.27349
2023-01-28 03:44:00+00:00,295.0,7.61,287.0,9.47,12.25,47.59359,-54.27349
2023-01-28 03:54:00+00:00,296.0,8.59,297.0,9.24,12.25,47.59359,-54.27349
2023-01-28 04:04:00+00:00,291.0,5.75,289.0,6.7,12.25,47.59359,-54.27349
2023-01-28 04:14:01+00:00,292.0,5.16,288.0,5.74,12.25,47.59359,-54.27349
2023-01-28 04:24:01+00:00,289.0,5.09,287.0,5.49,12.25,47.59359,-54.27349
2023-01-28 04:34:01+00:00,288.0,9.29,287.0,11.03,12.25,47.59359,-54.27349
2023-01-28 04:44:01+00:00,283.0,9.52,285.0,11.21,12.25,47.59359,-54.27349
2023-01-28 04:54:01+00:00,283.0,9.1,280.0,10.44,12.25,47.59359,-54.27349
2023-01-28 05:04:01+00:00,281.0,8.22,277.0,11.94,12.25,47.59359,-54.27349
2023-01-28 05:14:00+00:00,296.0,8.57,296.0,9.89,12.25,47.59359,-54.27349
2023-01-28 05:24:00+00:00,291.0,8.15,292.0,9.22,12.25,47.59359,-54.27349
2023-01-28 05:34:00+00:00,300.0,7.62,301.0,9.28,12.25,47.59359,-54.27349
2023-01-28 05:44:00+00:00,301.0,6.15,308.0,7.83,12.25,47.59359,-54.27349
2023-01-28 05:54:00+00:00,303.0,7.81,305.0,8.91,12.25,47.59359,-54.27349
2023-01-28 06:04:00+00:00,302.0,7.27,301.0,8.13,12.25,47.59359,-54.27349
2023-01-28 06:14:00+00:00,310.0,6.34,312.0,7.72,12.25,47.59359,-54.27349
2023-01-28 06:24:00+00:00,303.0,6.48,290.0,7.61,12.25,47.59359,-54.27349
2023-01-28 06:34:00+00:00,306.0,6.96,300.0,8.39,12.25,47.59359,-54.27349
2023-01-28 06:44:00+00:00,313.0,5.68,313.0,6.57,12.25,47.59359,-54.27349
2023-01-28 06:54:00+00:00,310.0,5.12,313.0,5.87,12.25,47.59359,-54.27349
2023-01-28 07:04:00+00:00,306.0,5.22,308.0,6.13,12.25,47.59359,-54.27349
2023-01-28 07:14:00+00:00,304.0,5.4,305.0,6.27,12.17,47.59359,-54.27349
2023-01-28 07:24:00+00:00,289.0,7.45,286.0,9.65,12.17,47.59359,-54.27349
2023-01-28 07:34:00+00:00,303.0,4.99,293.0,5.85,12.17,47.59359,-54.27349
2023-01-28 07:44:00+00:00,304.0,7.4,299.0,8.89,12.17,47.59359,-54.27349
2023-01-28 07:54:00+00:00,299.0,4.64,306.0,5.17,12.17,47.59359,-54.27349
2023-01-28 08:04:00+00:00,306.0,5.01,308.0,6.05,12.17,47.59359,-54.27349
2023-01-28 08:14:00+00:00,293.0,4.34,299.0,5.25,12.25,47.59359,-54.27349
2023-01-28 08:24:00+00:00,284.0,5.87,289.0,7.7,12.25,47.59359,-54.27349
2023-01-28 08:34:00+00:00,281.0,4.81,284.0,5.52,12.25,47.59359,-54.27349
2023-01-28 08:44:00+00:00,300.0,4.92,301.0,8.39,12.25,47.59359,-54.27349
2023-01-28 08:54:00+00:00,308.0,4.82,309.0,5.62,12.25,47.59359,-54.27349
2023-01-28 09:04:00+00:00,301.0,4.95,297.0,5.56,12.25,47.59359,-54.27349
2023-01-28 09:14:01+00:00,292.0,5.17,299.0,5.98,12.17,47.59359,-54.27349
2023-01-28 09:24:01+00:00,303.0,4.21,304.0,4.9,12.17,47.59359,-54.27349
2023-01-28 09:34:01+00:00,299.0,4.55,302.0,5.18,12.17,47.59359,-54.27349
2023-01-28 09:44:01+00:00,307.0,5.25,316.0,5.98,12.17,47.59359,-54.27349
2023-01-28 09:54:01+00:00,295.0,5.21,297.0,6.04,12.17,47.59359,-54.27349
2023-01-28 10:04:01+00:00,310.0,4.64,308.0,5.85,12.17,47.59359,-54.27349
2023-01-28 10:14:00+00:00,299.0,4.73,297.0,5.57,12.17,47.59359,-54.27349
2023-01-28 10:24:00+00:00,303.0,5.02,300.0,5.79,12.17,47.59359,-54.27349
2023-01-28 10:34:00+00:00,298.0,4.55,294.0,5.28,12.17,47.59359,-54.27349
2023-01-28 10:44:00+00:00,307.0,5.45,306.0,7.16,12.17,47.59359,-54.27349
2023-01-28 10:54:00+00:00,312.0,4.59,298.0,6.73,12.17,47.59359,-54.27349
2023-01-28 11:04:00+00:00,316.0,5.14,310.0,6.31,12.17,47.59359,-54.27349
2023-01-28 11:14:00+00:00,316.0,5.1,312.0,5.88,12.17,47.59359,-54.27349
2023-01-28 11:24:00+00:00,319.0,6.0,313.0,7.45,12.17,47.59359,-54.27349
2023-01-28 11:34:00+00:00,327.0,5.89,313.0,7.55,12.17,47.59359,-54.27349
2023-01-28 11:44:00+00:00,303.0,6.13,299.0,7.01,12.17,47.59359,-54.27349
2023-01-28 11:54:00+00:00,355.0,4.2,354.0,5.15,12.17,47.59359,-54.27349
2023-01-28 12:04:00+00:00,352.0,3.81,349.0,4.36,12.17,47.59359,-54.27349
2023-01-28 12:14:00+00:00,352.0,4.0,350.0,4.8,14.32,47.59359,-54.27349
2023-01-28 12:24:00+00:00,0.0,4.59,3.0,5.15,14.32,47.59359,-54.27349
2023-01-28 12:34:00+00:00,355.0,3.27,357.0,3.76,14.32,47.59359,-54.27349
2023-01-28 12:44:00+00:00,331.0,3.96,306.0,6.15,14.32,47.59359,-54.27349
2023-01-28 12:54:00+00:00,320.0,4.58,308.0,6.59,14.32,47.59359,-54.27349
2023-01-28 13:04:00+00:00,315.0,5.09,303.0,6.82,14.32,47.59359,-54.27349
2023-01-28 13:14:00+00:00,346.0,3.63,325.0,4.61,13.92,47.59359,-54.27349
2023-01-28 13:24:00+00:00,316.0,4.99,305.0,5.98,13.92,47.59359,-54.27349
2023-01-28 13:34:00+00:00,355.0,3.84,358.0,4.65,13.92,47.59359,-54.27349
2023-01-28 13:44:00+00:00,358.0,2.62,356.0,3.24,13.92,47.59359,-54.27349
2023-01-28 13:54:00+00:00,17.0,2.28,17.0,2.67,13.92,47.59359,-54.27349
2023-01-28 14:04:00+00:00,14.0,1.96,48.0,4.94,13.92,47.59359,-54.27349
2023-01-28 14:14:00+00:00,21.0,2.09,26.0,2.67,13.84,47.59359,-54.27349
2023-01-28 14:24:00+00:00,42.0,1.28,40.0,1.58,13.84,47.59359,-54.27349
2023-01-28 14:34:00+00:00,43.0,0.87,37.0,1.7,13.84,47.59359,-54.27349
2023-01-28 14:44:00+00:00,353.0,1.0,358.0,1.44,13.84,47.59359,-54.27349
2023-01-28 14:54:00+00:00,59.0,1.48,72.0,1.98,13.84,47.59359,-54.27349
2023-01-28 15:04:00+00:00,42.0,1.37,32.0,1.91,13.84,47.59359,-54.27349
2023-01-28 15:14:00+00:00,56.0,0.95,47.0,1.32,13.84,47.59359,-54.27349
2023-01-28 15:24:00+00:00,63.0,1.3,93.0,1.7,13.84,47.59359,-54.27349
2023-01-28 15:34:00+00:00,173.0,0.95,175.0,1.32,13.84,47.59359,-54.27349
2023-01-28 15:44:00+00:00,204.0,1.65,230.0,3.23,13.84,47.59359,-54.27349
2023-01-28 15:54:00+00:00,209.0,1.68,246.0,3.77,13.84,47.59359,-54.27349
2023-01-28 16:04:00+00:00,249.0,0.42,231.0,0.88,13.84,47.59359,-54.27349
2023-01-28 16:14:00+00:00,213.0,1.1,236.0,1.95,13.6,47.59359,-54.27349
2023-01-28 16:24:00+00:00,220.0,1.36,244.0,1.93,13.6,47.59359,-54.27349
2023-01-28 16:34:00+00:00,248.0,4.81,253.0,6.37,13.6,47.59359,-54.27349
2023-01-28 16:44:00+00:00,235.0,2.28,252.0,6.12,13.6,47.59359,-54.27349
2023-01-28 16:54:00+00:00,227.0,2.42,255.0,5.4,13.6,47.59359,-54.27349
2023-01-28 17:04:00+00:00,215.0,1.14,221.0,1.83,13.6,47.59359,-54.27349
2023-01-28 17:14:00+00:00,251.0,3.14,261.0,6.24,13.53,47.59359,-54.27349
2023-01-28 17:24:00+00:00,231.0,1.11,256.0,2.87,13.53,47.59359,-54.27349
2023-01-28 17:34:00+00:00,227.0,1.99,257.0,6.02,13.53,47.59359,-54.27349
2023-01-28 17:44:00+00:00,247.0,5.81,251.0,6.62,13.53,47.59359,-54.27349
2023-01-28 17:54:00+00:00,243.0,5.36,248.0,6.51,13.53,47.59359,-54.27349
2023-01-28 18:04:00+00:00,230.0,4.33,242.0,6.34,13.53,47.59359,-54.27349
2023-01-28 18:14:00+00:00,240.0,6.21,242.0,7.13,14.4,47.59359,-54.27349
2023-01-28 18:24:00+00:00,240.0,5.93,243.0,6.9,14.4,47.59359,-54.27349
2023-01-28 18:34:00+00:00,219.0,3.35,245.0,5.98,14.4,47.59359,-54.27349
2023-01-28 18:44:00+00:00,257.0,3.18,263.0,5.56,14.4,47.59359,-54.27349
2023-01-28 18:54:00+00:00,242.0,3.81,250.0,5.78,14.4,47.59359,-54.27349
2023-01-28 19:04:00+00:00,227.0,2.8,226.0,3.44,14.4,47.59359,-54.27349
2023-01-28 19:14:00+00:00,244.0,3.29,241.0,3.79,13.37,47.59359,-54.27349
2023-01-28 19:24:00+00:00,242.0,5.0,242.0,5.83,13.37,47.59359,-54.27349
2023-01-28 19:34:00+00:00,215.0,4.26,217.0,5.02,13.37,47.59359,-54.27349
2023-01-28 19:44:00+00:00,245.0,5.34,244.0,6.04,13.37,47.59359,-54.27349
2023-01-28 19:54:00+00:00,228.0,5.28,225.0,5.88,13.37,47.59359,-54.27349
2023-01-28 20:04:00+00:00,232.0,6.82,233.0,7.83,13.37,47.59359,-54.27349
2023-01-28 20:14:00+00:00,230.0,6.88,231.0,8.58,12.65,47.59359,-54.27349
2023-01-28 20:24:00+00:00,229.0,5.42,236.0,7.63,12.65,47.59359,-54.27349
2023-01-28 20:34:00+00:00,238.0,6.32,244.0,7.5,12.65,47.59359,-54.27349
2023-01-28 20:44:00+00:00,245.0,5.15,242.0,6.56,12.65,47.59359,-54.27349
2023-01-28 20:54:00+00:00,195.0,2.98,199.0,3.48,12.65,47.59359,-54.27349
2023-01-28 21:04:00+00:00,202.0,5.19,201.0,5.96,12.65,47.59359,-54.27349
2023-01-28 21:14:01+00:00,181.0,3.45,172.0,4.1,12.41,47.59359,-54.27349
2023-01-28 21:24:01+00:00,194.0,3.59,196.0,4.13,12.41,47.59359,-54.27349
2023-01-28 21:34:01+00:00,186.0,2.86,176.0,3.94,12.41,47.59359,-54.27349
2023-01-28 21:44:01+00:00,214.0,2.77,215.0,3.8,12.41,47.59359,-54.27349
2023-01-28 21:54:01+00:00,238.0,3.09,235.0,3.74,12.41,47.59359,-54.27349
2023-01-28 22:04:01+00:00,255.0,3.17,250.0,3.71,12.41,47.59359,-54.27349
2023-01-28 22:14:00+00:00,271.0,2.33,285.0,2.95,12.41,47.59359,-54.27349
2023-01-28 22:24:00+00:00,248.0,3.08,246.0,3.43,12.41,47.59359,-54.27349
2023-01-28 22:34:00+00:00,213.0,1.47,216.0,1.93,12.41,47.59359,-54.27349
2023-01-28 22:44:00+00:00,168.0,2.58,183.0,3.37,12.41,47.59359,-54.27349
2023-01-28 22:54:00+00:00,164.0,2.95,169.0,3.46,12.41,47.59359,-54.27349
2023-01-28 23:04:00+00:00,141.0,2.36,134.0,3.28,12.41,47.59359,-54.27349
2023-01-28 23:14:00+00:00,175.0,2.19,184.0,2.54,12.33,47.59359,-54.27349
2023-01-28 23:24:00+00:00,151.0,3.58,157.0,4.26,12.33,47.59359,-54.27349
2023-01-28 23:34:00+00:00,161.0,2.29,169.0,2.65,12.33,47.59359,-54.27349
2023-01-28 23:44:00+00:00,158.0,4.16,157.0,5.13,12.33,47.59359,-54.27349
2023-01-28 23:54:00+00:00,158.0,4.64,156.0,5.05,12.33,47.59359,-54.27349
